{"data":{"norad_id":63838,"intl_designator":"2025-093C","name":"STARLINK-34042","alt_names":[],"object_type":"PAYLOAD","status":"ACTIVE","operator":null,"country":"US","launch_date":"2025-05-07","launch_site_code":"AFETR","launch_vehicle":null,"mission":null,"orbit_class":"UNKNOWN","rcs_meters":null,"size_class":null,"mass_kg":null,"dimensions":null,"purposes":["comms"],"wikipedia_slug":null,"has_3d_model":false,"image_url":null,"decayed_at":null,"tle_current":{"epoch":"2026-09-20T17:14:41.917344Z","epoch_age_seconds":131021,"freshness":"FRESH","line1":"1 63838U 25093C   26263.71854071  .00013949  00000+0  51527-3 0  9997","line2":"2 63838  43.0016  52.6433 0001284 269.7851  90.2854 15.27591326 77845","mean_motion":15.27591326,"eccentricity":0.0001284,"inclination_deg":43.0016,"raan_deg":52.6433,"arg_perigee_deg":269.7851,"mean_anomaly_deg":90.2854,"bstar":0.00051527,"rev_number":7784,"period_min":94.26604979295399,"perigee_km":482.1342101905,"apogee_km":483.89615407087,"semimajor_km":6861.1521821307,"source":"CELESTRAK","updated_at":"2026-09-21T09:00:35.110671Z"}}}